EZS78KW LPMA-LSGG

Flight info

Callsign EZS78KW
Flight time 2h 49m
Altitude 30000
Route DEGUN DCT RULET DCT GALPA DCT BUSEN DCT RIVRO DCT TOSDI DCT ZMR DCT NEA DCT DGO DCT LPA DCT GOSVI DCT TOPTU DCT TOU DCT GAI DCT MEN DCT NINUN DCT LATAM DCT ETREK DCT LUXAN G53 LTP Z16 BELUS
Aircraft A320/M-SDE3FGHIRWY/LB1

Departure

Time 2026-05-07 18:25
Airport Cristiano Ronaldo International Airport (LPMA)

Arrival

Time 2026-05-07 21:14
Airport Geneva International Airport (LSGG)
Time Latitude Longitude Altitude Speed Heading
2026-05-07 17:57 32.69358 -16.77660 170 ft 0 kts 139°
2026-05-07 18:05 32.69358 -16.77661 169 ft 0 kts 139°
2026-05-07 18:11 32.69398 -16.77716 171 ft 4 kts 73°
2026-05-07 18:12 32.69385 -16.77737 169 ft 0 kts 45°
2026-05-07 18:14 32.69402 -16.77717 169 ft 6 kts 45°
2026-05-07 18:14 32.69429 -16.77684 169 ft 5 kts 46°
2026-05-07 18:14 32.69462 -16.77642 169 ft 7 kts 46°
2026-05-07 18:15 32.69494 -16.77602 169 ft 6 kts 46°
2026-05-07 18:15 32.69547 -16.77536 169 ft 12 kts 46°
2026-05-07 18:15 32.69602 -16.77468 169 ft 11 kts 46°
2026-05-07 18:15 32.69651 -16.77407 169 ft 9 kts 46°
2026-05-07 18:16 32.69701 -16.77347 170 ft 12 kts 45°
2026-05-07 18:16 32.69742 -16.77296 174 ft 5 kts 46°
2026-05-07 18:16 32.69753 -16.77283 176 ft 4 kts 46°
2026-05-07 18:16 32.69777 -16.77253 179 ft 3 kts 46°
2026-05-07 18:17 32.69800 -16.77224 181 ft 0 kts 46°
2026-05-07 18:21 32.69828 -16.77193 183 ft 20 kts 38°
2026-05-07 18:22 32.69957 -16.77179 188 ft 17 kts
2026-05-07 18:22 32.70029 -16.77161 196 ft 15 kts 35°
2026-05-07 18:22 32.70149 -16.77023 200 ft 22 kts 45°
2026-05-07 18:22 32.70251 -16.76901 195 ft 20 kts 45°
2026-05-07 18:23 32.70353 -16.76783 189 ft 24 kts 43°
2026-05-07 18:23 32.70466 -16.76651 189 ft 22 kts 43°
2026-05-07 18:23 32.70570 -16.76532 189 ft 20 kts 44°
2026-05-07 18:23 32.70667 -16.76466 195 ft 12 kts 75°
2026-05-07 18:24 32.70614 -16.76478 195 ft 10 kts 223°
2026-05-07 18:24 32.70538 -16.76567 192 ft 38 kts 225°
2026-05-07 18:24 32.70138 -16.77039 189 ft 121 kts 225°
2026-05-07 18:24 32.69410 -16.77894 480 ft 158 kts 225°
2026-05-07 18:25 32.68530 -16.78716 1375 ft 166 kts 210°
2026-05-07 18:25 32.67415 -16.79063 2008 ft 176 kts 185°
2026-05-07 18:25 32.66136 -16.78885 2443 ft 193 kts 174°
2026-05-07 18:25 32.64753 -16.78634 2848 ft 209 kts 175°
2026-05-07 18:26 32.63254 -16.78365 3240 ft 227 kts 175°
2026-05-07 18:26 32.61644 -16.77944 3719 ft 248 kts 157°
2026-05-07 18:26 32.60341 -16.76528 4351 ft 268 kts 120°
2026-05-07 18:26 32.59924 -16.74342 5014 ft 280 kts 84°
2026-05-07 18:27 32.60363 -16.72068 5692 ft 289 kts 70°
2026-05-07 18:27 32.61093 -16.69845 5917 ft 290 kts 66°
2026-05-07 18:27 32.61859 -16.67618 5974 ft 291 kts 68°
2026-05-07 18:27 32.62546 -16.65366 6274 ft 291 kts 70°
2026-05-07 18:28 32.63144 -16.63061 7038 ft 295 kts 72°
2026-05-07 18:28 32.63680 -16.60686 7862 ft 299 kts 74°
2026-05-07 18:28 32.64175 -16.58272 8651 ft 304 kts 75°
2026-05-07 18:28 32.64792 -16.55865 9456 ft 306 kts 63°
2026-05-07 18:29 32.65840 -16.53670 10225 ft 305 kts 49°
2026-05-07 18:29 32.67322 -16.51826 10695 ft 315 kts 37°
2026-05-07 18:29 32.69011 -16.50052 11082 ft 332 kts 37°
2026-05-07 18:29 32.70781 -16.48193 11440 ft 349 kts 37°
2026-05-07 18:30 32.72612 -16.46267 11901 ft 361 kts 37°
2026-05-07 18:30 32.74497 -16.44271 12592 ft 365 kts 37°
2026-05-07 18:30 32.76408 -16.42239 13294 ft 369 kts 37°
2026-05-07 18:30 32.78330 -16.40193 13968 ft 373 kts 36°
2026-05-07 18:31 32.80269 -16.38131 14574 ft 376 kts 36°
2026-05-07 18:31 32.82232 -16.36050 15179 ft 380 kts 36°
2026-05-07 18:31 32.84219 -16.33950 15765 ft 384 kts 36°
2026-05-07 18:31 32.86227 -16.31830 16361 ft 388 kts 36°
2026-05-07 18:32 32.88255 -16.29684 16949 ft 392 kts 36°
2026-05-07 18:32 32.90299 -16.27516 17534 ft 396 kts 35°
2026-05-07 18:32 32.92340 -16.25347 18109 ft 399 kts 35°
2026-05-07 18:32 32.94449 -16.23105 18652 ft 403 kts 35°
2026-05-07 18:33 32.96525 -16.20898 19163 ft 406 kts 35°
2026-05-07 18:33 32.98649 -16.18640 19695 ft 409 kts 35°
2026-05-07 18:33 33.00777 -16.16378 20216 ft 413 kts 35°
2026-05-07 18:33 33.02921 -16.14098 20751 ft 415 kts 35°
2026-05-07 18:34 33.05090 -16.11790 21275 ft 419 kts 35°
2026-05-07 18:34 33.05579 -16.11270 21390 ft 419 kts 35°
2026-05-07 18:34 33.07683 -16.09027 21876 ft 422 kts 35°
2026-05-07 18:34 33.09882 -16.06681 22367 ft 426 kts 35°
2026-05-07 18:35 33.12096 -16.04314 22845 ft 429 kts 36°
2026-05-07 18:35 33.14294 -16.01958 23297 ft 432 kts 36°
2026-05-07 18:35 33.16541 -15.99550 23713 ft 436 kts 36°
2026-05-07 18:35 33.18805 -15.97124 24064 ft 439 kts 36°
2026-05-07 18:36 33.21087 -15.94677 24418 ft 442 kts 36°
2026-05-07 18:36 33.23387 -15.92213 24756 ft 446 kts 36°
2026-05-07 18:36 33.25705 -15.89733 25087 ft 449 kts 36°
2026-05-07 18:36 33.28037 -15.87230 25410 ft 452 kts 37°
2026-05-07 18:37 33.30384 -15.84706 25731 ft 455 kts 37°
2026-05-07 18:37 33.32748 -15.82163 26044 ft 459 kts 37°
2026-05-07 18:37 33.35127 -15.79600 26357 ft 462 kts 37°
2026-05-07 18:37 33.37522 -15.77018 26666 ft 465 kts 37°
2026-05-07 18:38 33.39933 -15.74418 26964 ft 468 kts 37°
2026-05-07 18:38 33.42362 -15.71799 27252 ft 471 kts 38°
2026-05-07 18:38 33.44806 -15.69161 27544 ft 474 kts 38°
2026-05-07 18:38 33.47265 -15.66506 27829 ft 477 kts 38°
2026-05-07 18:39 33.49740 -15.63834 28101 ft 481 kts 38°
2026-05-07 18:39 33.52233 -15.61144 28367 ft 484 kts 38°
2026-05-07 18:39 33.54730 -15.58445 28631 ft 487 kts 38°
2026-05-07 18:39 33.57254 -15.55706 28862 ft 490 kts 39°
2026-05-07 18:40 33.59786 -15.52955 29134 ft 492 kts 39°
2026-05-07 18:40 33.62329 -15.50187 29389 ft 495 kts 39°
2026-05-07 18:40 33.64886 -15.47404 29608 ft 498 kts 39°
2026-05-07 18:40 33.67457 -15.44606 29843 ft 500 kts 39°
2026-05-07 18:41 33.70039 -15.41794 29975 ft 499 kts 39°
2026-05-07 18:41 33.72564 -15.39036 29979 ft 488 kts 39°
2026-05-07 18:41 33.75081 -15.36284 29981 ft 488 kts 40°
2026-05-07 18:42 33.80122 -15.30785 29981 ft 489 kts 40°
2026-05-07 18:42 33.85167 -15.25280 29975 ft 490 kts 40°
2026-05-07 18:43 33.90214 -15.19760 29974 ft 500 kts 40°
2026-05-07 18:43 33.95438 -15.14027 29979 ft 515 kts 41°
2026-05-07 18:44 34.00794 -15.08145 29977 ft 525 kts 41°
2026-05-07 18:44 34.06225 -15.02161 29980 ft 532 kts 41°
2026-05-07 18:45 34.11696 -14.96111 29977 ft 535 kts 42°
2026-05-07 18:45 34.17201 -14.90030 29979 ft 536 kts 42°
2026-05-07 18:46 34.22717 -14.83936 29977 ft 537 kts 42°
2026-05-07 18:46 34.28232 -14.77825 29970 ft 538 kts 43°
2026-05-07 18:47 34.32824 -14.72721 29969 ft 540 kts 43°
2026-05-07 18:47 34.39256 -14.65554 29970 ft 541 kts 43°
2026-05-07 18:48 34.44807 -14.59353 29963 ft 543 kts 44°
2026-05-07 18:48 34.49470 -14.54154 29963 ft 545 kts 44°
2026-05-07 18:49 34.55014 -14.47960 29968 ft 546 kts 44°
2026-05-07 18:49 34.60588 -14.41698 29971 ft 546 kts 44°
2026-05-07 18:50 34.66156 -14.35429 29961 ft 546 kts 45°
2026-05-07 18:50 34.71741 -14.29149 29971 ft 547 kts 45°
2026-05-07 18:51 34.77342 -14.22850 29959 ft 548 kts 45°
2026-05-07 18:51 34.82929 -14.16531 29954 ft 549 kts 45°
2026-05-07 18:52 34.88525 -14.10194 29957 ft 550 kts 45°
2026-05-07 18:52 34.94119 -14.03837 29972 ft 550 kts 46°
2026-05-07 18:53 34.99717 -13.97472 29973 ft 550 kts 46°
2026-05-07 18:53 35.05321 -13.91090 29974 ft 550 kts 46°
2026-05-07 18:54 35.10916 -13.84710 29975 ft 550 kts 46°
2026-05-07 18:54 35.16463 -13.78370 29975 ft 550 kts 46°
2026-05-07 18:55 35.22046 -13.71970 29976 ft 550 kts 46°
2026-05-07 18:55 35.27614 -13.65572 29976 ft 550 kts 46°
2026-05-07 18:56 35.33195 -13.59155 29972 ft 550 kts 46°
2026-05-07 18:56 35.38772 -13.52723 29982 ft 551 kts 46°
2026-05-07 18:57 35.44366 -13.46265 29981 ft 551 kts 46°
2026-05-07 18:57 35.49942 -13.39816 29979 ft 551 kts 46°
2026-05-07 18:58 35.55514 -13.33349 29979 ft 551 kts 46°
2026-05-07 18:58 35.61096 -13.26875 29975 ft 551 kts 46°
2026-05-07 18:59 35.66656 -13.20411 29983 ft 551 kts 46°
2026-05-07 18:59 35.72179 -13.13961 29975 ft 550 kts 46°
2026-05-07 19:00 35.77734 -13.07463 29980 ft 550 kts 46°
2026-05-07 19:00 35.83274 -13.00962 29982 ft 550 kts 46°
2026-05-07 19:01 35.88817 -12.94464 29983 ft 550 kts 45°
2026-05-07 19:01 35.94362 -12.87955 29978 ft 550 kts 45°
2026-05-07 19:02 35.99899 -12.81432 29975 ft 550 kts 46°
2026-05-07 19:02 36.05429 -12.74901 29986 ft 549 kts 46°
2026-05-07 19:03 36.10945 -12.68367 29981 ft 549 kts 46°
2026-05-07 19:03 36.16461 -12.61829 29982 ft 549 kts 46°
2026-05-07 19:04 36.21978 -12.55281 29975 ft 549 kts 46°
2026-05-07 19:04 36.27476 -12.48738 29975 ft 548 kts 46°
2026-05-07 19:05 36.32935 -12.42219 29974 ft 548 kts 46°
2026-05-07 19:05 36.38426 -12.35659 29974 ft 547 kts 46°
2026-05-07 19:06 36.43892 -12.29106 29972 ft 546 kts 46°
2026-05-07 19:06 36.52084 -12.19267 29976 ft 545 kts 46°
2026-05-07 19:07 36.57536 -12.12705 29976 ft 545 kts 46°
2026-05-07 19:07 36.62976 -12.06141 29977 ft 544 kts 46°
2026-05-07 19:08 36.68397 -11.99584 29981 ft 542 kts 46°
2026-05-07 19:08 36.73799 -11.93041 29979 ft 541 kts 46°
2026-05-07 19:09 36.79179 -11.86512 29981 ft 539 kts 46°
2026-05-07 19:09 36.84553 -11.79986 29976 ft 538 kts 46°
2026-05-07 19:10 36.89907 -11.73459 29976 ft 537 kts 46°
2026-05-07 19:10 36.95210 -11.66976 29972 ft 536 kts 46°
2026-05-07 19:11 37.00545 -11.60447 29967 ft 536 kts 46°
2026-05-07 19:11 37.05868 -11.53913 29957 ft 536 kts 46°
2026-05-07 19:12 37.11175 -11.47376 29960 ft 535 kts 46°
2026-05-07 19:12 37.16482 -11.40835 29962 ft 534 kts 46°
2026-05-07 19:13 37.21783 -11.34295 29964 ft 534 kts 46°
2026-05-07 19:13 37.27069 -11.27762 29970 ft 533 kts 46°
2026-05-07 19:14 37.31909 -11.21764 29969 ft 533 kts 46°
2026-05-07 19:14 37.37184 -11.15215 29969 ft 532 kts 46°
2026-05-07 19:15 37.42414 -11.08709 29970 ft 532 kts 46°
2026-05-07 19:15 37.47672 -11.02144 29966 ft 532 kts 46°
2026-05-07 19:16 37.52912 -10.95584 29962 ft 531 kts 46°
2026-05-07 19:16 37.58153 -10.89022 29960 ft 531 kts 46°
2026-05-07 19:17 37.63392 -10.82452 29971 ft 530 kts 46°
2026-05-07 19:17 37.68620 -10.75883 29973 ft 529 kts 46°
2026-05-07 19:18 37.73832 -10.69321 29975 ft 528 kts 46°
2026-05-07 19:18 37.79027 -10.62753 29974 ft 527 kts 46°
2026-05-07 19:19 37.84202 -10.56200 29975 ft 526 kts 46°
2026-05-07 19:19 37.89372 -10.49651 29975 ft 525 kts 46°
2026-05-07 19:20 37.94500 -10.43136 29970 ft 525 kts 46°
2026-05-07 19:20 37.99679 -10.36537 29968 ft 524 kts 46°
2026-05-07 19:21 38.04768 -10.30038 29962 ft 524 kts 46°
2026-05-07 19:21 38.09901 -10.23460 29967 ft 524 kts 46°
2026-05-07 19:22 38.15027 -10.16889 29972 ft 523 kts 46°
2026-05-07 19:22 38.20144 -10.10320 29971 ft 523 kts 46°
2026-05-07 19:23 38.25265 -10.03729 29968 ft 522 kts 46°
2026-05-07 19:23 38.30367 -9.97159 29966 ft 522 kts 46°
2026-05-07 19:24 38.35468 -9.90581 29966 ft 521 kts 46°
2026-05-07 19:24 38.40555 -9.83993 29955 ft 521 kts 46°
2026-05-07 19:25 38.45598 -9.77430 29949 ft 521 kts 46°
2026-05-07 19:25 38.50704 -9.70775 29956 ft 521 kts 46°
2026-05-07 19:26 38.55789 -9.64158 29958 ft 521 kts 46°
2026-05-07 19:26 38.60820 -9.57595 29959 ft 521 kts 46°
2026-05-07 19:27 38.65888 -9.50958 29954 ft 521 kts 46°
2026-05-07 19:27 38.70945 -9.44320 29948 ft 521 kts 46°
2026-05-07 19:28 38.75998 -9.37673 29949 ft 521 kts 46°
2026-05-07 19:28 38.81058 -9.31021 29947 ft 521 kts 46°
2026-05-07 19:29 38.86108 -9.24345 29925 ft 521 kts 46°
2026-05-07 19:29 38.91147 -9.17661 29926 ft 521 kts 46°
2026-05-07 19:30 38.96188 -9.10973 29934 ft 520 kts 46°
2026-05-07 19:30 39.01215 -9.04293 29942 ft 520 kts 46°
2026-05-07 19:31 39.05399 -8.98719 29939 ft 520 kts 46°
2026-05-07 19:31 39.10416 -8.92028 29961 ft 519 kts 46°
2026-05-07 19:32 39.15426 -8.85325 29955 ft 519 kts 46°
2026-05-07 19:32 39.20422 -8.78621 29956 ft 518 kts 46°
2026-05-07 19:33 39.25423 -8.71902 29950 ft 518 kts 46°
2026-05-07 19:33 39.30408 -8.65193 29955 ft 518 kts 46°
2026-05-07 19:34 39.35386 -8.58481 29942 ft 518 kts 46°
2026-05-07 19:34 39.40357 -8.51754 29943 ft 517 kts 46°
2026-05-07 19:35 39.45305 -8.45053 29945 ft 517 kts 45°
2026-05-07 19:35 39.50264 -8.38322 29941 ft 516 kts 45°
2026-05-07 19:36 39.55210 -8.31587 29944 ft 515 kts 45°
2026-05-07 19:36 39.60141 -8.24850 29933 ft 515 kts 45°
2026-05-07 19:37 39.65065 -8.18113 29933 ft 514 kts 45°
2026-05-07 19:37 39.69986 -8.11379 29930 ft 514 kts 45°
2026-05-07 19:38 39.74896 -8.04634 29929 ft 514 kts 45°
2026-05-07 19:38 39.79811 -7.97872 29930 ft 514 kts 45°
2026-05-07 19:39 39.84711 -7.91111 29926 ft 513 kts 45°
2026-05-07 19:39 39.89599 -7.84343 29927 ft 513 kts 45°
2026-05-07 19:40 39.94481 -7.77572 29923 ft 512 kts 45°
2026-05-07 19:40 39.99357 -7.70802 29913 ft 512 kts 45°
2026-05-07 19:41 40.04223 -7.64029 29917 ft 511 kts 45°
2026-05-07 19:41 40.09039 -7.57311 29907 ft 510 kts 45°
2026-05-07 19:42 40.13884 -7.50537 29906 ft 510 kts 45°
2026-05-07 19:42 40.18735 -7.43748 29897 ft 510 kts 45°
2026-05-07 19:43 40.23570 -7.36959 29892 ft 511 kts 45°
2026-05-07 19:43 40.28410 -7.30146 29889 ft 511 kts 45°
2026-05-07 19:44 40.33250 -7.23321 29894 ft 511 kts 45°
2026-05-07 19:44 40.38093 -7.16487 29897 ft 512 kts 45°
2026-05-07 19:45 40.42936 -7.09627 29896 ft 512 kts 45°
2026-05-07 19:45 40.47744 -7.02792 29905 ft 511 kts 45°
2026-05-07 19:46 40.52567 -6.95924 29901 ft 511 kts 45°
2026-05-07 19:46 40.57393 -6.89039 29903 ft 511 kts 45°
2026-05-07 19:47 40.62209 -6.82142 29906 ft 511 kts 45°
2026-05-07 19:47 40.67022 -6.75240 29904 ft 511 kts 45°
2026-05-07 19:48 40.71835 -6.68332 29899 ft 512 kts 45°
2026-05-07 19:48 40.76649 -6.61405 29901 ft 512 kts 45°
2026-05-07 19:49 40.81459 -6.54465 29906 ft 513 kts 45°
2026-05-07 19:49 40.86242 -6.47541 29906 ft 513 kts 45°
2026-05-07 19:50 40.91062 -6.40553 29911 ft 514 kts 45°
2026-05-07 19:50 40.95884 -6.33535 29912 ft 515 kts 45°
2026-05-07 19:51 41.00855 -6.26753 29914 ft 512 kts 38°
2026-05-07 19:51 41.06115 -6.20491 29918 ft 512 kts 38°
2026-05-07 19:52 41.11399 -6.14186 29926 ft 510 kts 38°
2026-05-07 19:52 41.16674 -6.07875 29922 ft 510 kts 38°
2026-05-07 19:53 41.21933 -6.01571 29928 ft 508 kts 38°
2026-05-07 19:53 41.27169 -5.95265 29932 ft 507 kts 38°
2026-05-07 19:54 41.32396 -5.88958 29930 ft 506 kts 38°
2026-05-07 19:54 41.37620 -5.82652 29928 ft 506 kts 38°
2026-05-07 19:55 41.42797 -5.76393 29927 ft 505 kts 38°
2026-05-07 19:55 41.47995 -5.70097 29929 ft 504 kts 38°
2026-05-07 19:56 41.52842 -5.63287 29925 ft 511 kts 52°
2026-05-07 19:56 41.56095 -5.54779 29923 ft 517 kts 63°
2026-05-07 19:57 41.59010 -5.45989 29930 ft 516 kts 63°
2026-05-07 19:57 41.61905 -5.37271 29934 ft 516 kts 63°
2026-05-07 19:58 41.64818 -5.28466 29935 ft 516 kts 63°
2026-05-07 19:58 41.67713 -5.19682 29946 ft 516 kts 63°
2026-05-07 19:59 41.70588 -5.10944 29946 ft 516 kts 63°
2026-05-07 19:59 41.73468 -5.02146 29948 ft 516 kts 63°
2026-05-07 20:00 41.76336 -4.93329 29957 ft 515 kts 62°
2026-05-07 20:00 41.79193 -4.84522 29959 ft 515 kts 62°
2026-05-07 20:01 41.82026 -4.75759 29964 ft 514 kts 62°
2026-05-07 20:01 41.84872 -4.66965 29959 ft 514 kts 62°
2026-05-07 20:02 41.87727 -4.58150 29968 ft 514 kts 62°
2026-05-07 20:02 41.90559 -4.49345 29969 ft 513 kts 62°
2026-05-07 20:03 41.93365 -4.40551 29968 ft 512 kts 62°
2026-05-07 20:03 41.96164 -4.31745 29970 ft 512 kts 62°
2026-05-07 20:04 41.98939 -4.23003 29972 ft 511 kts 62°
2026-05-07 20:04 42.01729 -4.14213 29969 ft 511 kts 62°
2026-05-07 20:05 42.04571 -4.05469 29971 ft 509 kts 60°
2026-05-07 20:05 42.07629 -3.96889 29966 ft 507 kts 59°
2026-05-07 20:06 42.10725 -3.88367 29966 ft 507 kts 59°
2026-05-07 20:06 42.13767 -3.79790 29969 ft 507 kts 59°
2026-05-07 20:07 42.16762 -3.71180 29970 ft 507 kts 60°
2026-05-07 20:07 42.19723 -3.62629 29973 ft 506 kts 60°
2026-05-07 20:08 42.22705 -3.54036 29970 ft 505 kts 60°
2026-05-07 20:08 42.25663 -3.45516 29979 ft 504 kts 60°
2026-05-07 20:09 42.28631 -3.36945 29968 ft 503 kts 60°
2026-05-07 20:10 42.33054 -3.24097 29976 ft 501 kts 61°
2026-05-07 20:10 42.35975 -3.15553 29977 ft 500 kts 61°
2026-05-07 20:11 42.38891 -3.07020 29973 ft 499 kts 61°
2026-05-07 20:11 42.41798 -2.98495 29967 ft 498 kts 62°
2026-05-07 20:12 42.44532 -2.89872 29966 ft 501 kts 70°
2026-05-07 20:12 42.45263 -2.85251 29962 ft 505 kts 81°
2026-05-07 20:12 42.45446 -2.80489 29958 ft 506 kts 88°
2026-05-07 20:13 42.45576 -2.71023 29965 ft 506 kts 88°
2026-05-07 20:13 42.45719 -2.61507 29968 ft 505 kts 88°
2026-05-07 20:14 42.45850 -2.51972 29971 ft 504 kts 88°
2026-05-07 20:14 42.45958 -2.42476 29977 ft 503 kts 89°
2026-05-07 20:15 42.46142 -2.33072 29978 ft 502 kts 83°
2026-05-07 20:15 42.47533 -2.23811 29982 ft 501 kts 76°
2026-05-07 20:16 42.49077 -2.14610 29986 ft 500 kts 77°
2026-05-07 20:16 42.50603 -2.05411 29975 ft 499 kts 77°
2026-05-07 20:17 42.52108 -1.96280 29981 ft 498 kts 77°
2026-05-07 20:17 42.53610 -1.87109 29982 ft 497 kts 77°
2026-05-07 20:18 42.55093 -1.77963 29981 ft 496 kts 78°
2026-05-07 20:18 42.56322 -1.70362 29983 ft 496 kts 78°
2026-05-07 20:19 42.57794 -1.61233 29985 ft 495 kts 78°
2026-05-07 20:19 42.59267 -1.52083 29983 ft 495 kts 78°
2026-05-07 20:20 42.60723 -1.42953 29982 ft 495 kts 78°
2026-05-07 20:20 42.62172 -1.33805 29984 ft 495 kts 78°
2026-05-07 20:21 42.63606 -1.24670 29996 ft 494 kts 79°
2026-05-07 20:21 42.65032 -1.15603 30001 ft 494 kts 79°
2026-05-07 20:22 42.66465 -1.06454 30006 ft 495 kts 79°
2026-05-07 20:22 42.67891 -0.97300 30010 ft 495 kts 79°
2026-05-07 20:23 42.69296 -0.88191 30009 ft 495 kts 79°
2026-05-07 20:23 42.70700 -0.79021 30014 ft 495 kts 79°
2026-05-07 20:24 42.72101 -0.69866 30007 ft 495 kts 79°
2026-05-07 20:24 42.73500 -0.60681 30011 ft 495 kts 80°
2026-05-07 20:25 42.74884 -0.51500 30015 ft 495 kts 80°
2026-05-07 20:25 42.76262 -0.42308 30013 ft 496 kts 80°
2026-05-07 20:26 42.77632 -0.33116 30013 ft 496 kts 80°
2026-05-07 20:26 42.79045 -0.23984 30008 ft 498 kts 75°
2026-05-07 20:27 42.82047 -0.15495 30000 ft 501 kts 54°
2026-05-07 20:27 42.86454 -0.08107 29999 ft 502 kts 51°
2026-05-07 20:28 42.90876 -0.00748 29999 ft 502 kts 51°
2026-05-07 20:28 42.95290 0.06629 29988 ft 502 kts 51°
2026-05-07 20:29 42.99702 0.14034 29986 ft 503 kts 51°
2026-05-07 20:29 43.04120 0.21447 29987 ft 503 kts 51°
2026-05-07 20:30 43.08507 0.28822 29975 ft 503 kts 51°
2026-05-07 20:30 43.12924 0.36265 29969 ft 504 kts 51°
2026-05-07 20:31 43.17341 0.43739 29966 ft 505 kts 52°
2026-05-07 20:31 43.21753 0.51233 29957 ft 505 kts 52°
2026-05-07 20:32 43.26166 0.58744 29961 ft 506 kts 52°
2026-05-07 20:32 43.30574 0.66257 29964 ft 505 kts 52°
2026-05-07 20:33 43.34979 0.73802 29964 ft 506 kts 52°
2026-05-07 20:33 43.39389 0.81338 29963 ft 506 kts 52°
2026-05-07 20:34 43.43775 0.88857 29963 ft 506 kts 52°
2026-05-07 20:34 43.48174 0.96434 29956 ft 507 kts 52°
2026-05-07 20:35 43.52573 1.04039 29962 ft 507 kts 52°
2026-05-07 20:35 43.56971 1.11642 29967 ft 508 kts 52°
2026-05-07 20:36 43.61303 1.19151 29970 ft 508 kts 52°
2026-05-07 20:36 43.65705 1.26808 29975 ft 510 kts 52°
2026-05-07 20:37 43.70082 1.34524 29963 ft 510 kts 53°
2026-05-07 20:37 43.74301 1.42405 29974 ft 510 kts 55°
2026-05-07 20:38 43.78453 1.50351 29969 ft 510 kts 55°
2026-05-07 20:38 43.82647 1.58299 29973 ft 511 kts 54°
2026-05-07 20:39 43.86866 1.66239 29970 ft 511 kts 54°
2026-05-07 20:39 43.91050 1.74128 29959 ft 512 kts 54°
2026-05-07 20:40 43.95269 1.82123 29984 ft 512 kts 54°
2026-05-07 20:40 43.99383 1.90186 29983 ft 511 kts 56°
2026-05-07 20:41 44.03391 1.98339 29980 ft 512 kts 56°
2026-05-07 20:41 44.07408 2.06522 29993 ft 512 kts 56°
2026-05-07 20:42 44.11458 2.14676 29980 ft 512 kts 56°
2026-05-07 20:42 44.15505 2.22835 30001 ft 512 kts 56°
2026-05-07 20:43 44.19507 2.30955 30009 ft 511 kts 56°
2026-05-07 20:43 44.23528 2.39147 30011 ft 511 kts 56°
2026-05-07 20:44 44.27535 2.47343 30010 ft 511 kts 56°
2026-05-07 20:44 44.31546 2.55549 30011 ft 511 kts 56°
2026-05-07 20:45 44.35548 2.63754 30014 ft 511 kts 56°
2026-05-07 20:45 44.39539 2.71973 30018 ft 511 kts 56°
2026-05-07 20:46 44.43496 2.80156 30018 ft 510 kts 56°
2026-05-07 20:46 44.47478 2.88399 30023 ft 510 kts 56°
2026-05-07 20:47 44.51447 2.96641 30027 ft 510 kts 56°
2026-05-07 20:47 44.55409 3.04888 30020 ft 510 kts 56°
2026-05-07 20:48 44.59369 3.13157 30024 ft 510 kts 56°
2026-05-07 20:48 44.63176 3.21546 30025 ft 510 kts 60°
2026-05-07 20:49 44.66630 3.30259 30032 ft 509 kts 63°
2026-05-07 20:49 44.69956 3.38968 30033 ft 509 kts 62°
2026-05-07 20:50 44.73391 3.47697 30035 ft 509 kts 61°
2026-05-07 20:50 44.76878 3.56376 30036 ft 509 kts 61°
2026-05-07 20:51 44.80349 3.65057 30025 ft 509 kts 61°
2026-05-07 20:51 44.83795 3.73767 30025 ft 509 kts 62°
2026-05-07 20:52 44.87224 3.82497 30022 ft 509 kts 62°
2026-05-07 20:52 44.90648 3.91225 30019 ft 508 kts 62°
2026-05-07 20:53 44.94072 3.99961 30017 ft 508 kts 62°
2026-05-07 20:53 44.97469 4.08654 30016 ft 508 kts 62°
2026-05-07 20:54 45.00879 4.17405 30023 ft 508 kts 62°
2026-05-07 20:54 45.04272 4.26169 30018 ft 508 kts 62°
2026-05-07 20:55 45.07659 4.34939 30017 ft 508 kts 62°
2026-05-07 20:55 45.11044 4.43715 30013 ft 508 kts 62°
2026-05-07 20:56 45.14423 4.52494 30013 ft 507 kts 62°
2026-05-07 20:56 45.17753 4.61213 29774 ft 501 kts 62°
2026-05-07 20:56 45.19397 4.65525 29074 ft 493 kts 62°
2026-05-07 20:57 45.21020 4.69774 28281 ft 486 kts 62°
2026-05-07 20:57 45.22622 4.73968 27528 ft 479 kts 62°
2026-05-07 20:57 45.24193 4.78091 26810 ft 472 kts 62°
2026-05-07 20:57 45.25746 4.82172 26110 ft 466 kts 62°
2026-05-07 20:58 45.27273 4.86192 25461 ft 460 kts 62°
2026-05-07 20:58 45.28775 4.90155 24820 ft 454 kts 62°
2026-05-07 20:58 45.30262 4.94089 24324 ft 446 kts 62°
2026-05-07 20:58 45.31701 4.97901 23914 ft 442 kts 62°
2026-05-07 20:59 45.33146 5.01733 23481 ft 438 kts 62°
2026-05-07 20:59 45.34580 5.05539 22988 ft 434 kts 62°
2026-05-07 20:59 45.35995 5.09306 22505 ft 431 kts 63°
2026-05-07 20:59 45.37399 5.13053 22028 ft 427 kts 63°
2026-05-07 21:00 45.38791 5.16769 21559 ft 423 kts 63°
2026-05-07 21:00 45.40166 5.20440 21092 ft 420 kts 63°
2026-05-07 21:00 45.41535 5.24103 20634 ft 417 kts 63°
2026-05-07 21:00 45.42890 5.27733 20177 ft 413 kts 63°
2026-05-07 21:01 45.44231 5.31335 19736 ft 410 kts 63°
2026-05-07 21:01 45.45556 5.34899 19300 ft 407 kts 63°
2026-05-07 21:01 45.46876 5.38449 18862 ft 404 kts 63°
2026-05-07 21:01 45.48359 5.41844 18435 ft 402 kts 53°
2026-05-07 21:02 45.50279 5.44714 17961 ft 401 kts 40°
2026-05-07 21:02 45.52573 5.46955 17473 ft 398 kts 30°
2026-05-07 21:02 45.54936 5.48893 17007 ft 395 kts 30°
2026-05-07 21:02 45.57310 5.50855 16541 ft 393 kts 30°
2026-05-07 21:03 45.59669 5.52816 16068 ft 390 kts 30°
2026-05-07 21:03 45.62012 5.54767 15610 ft 388 kts 30°
2026-05-07 21:03 45.64340 5.56710 15169 ft 385 kts 30°
2026-05-07 21:03 45.66646 5.58639 14721 ft 383 kts 30°
2026-05-07 21:04 45.68159 5.59900 14437 ft 381 kts 30°
2026-05-07 21:04 45.71200 5.62355 13854 ft 363 kts 28°
2026-05-07 21:04 45.73363 5.64054 13386 ft 346 kts 28°
2026-05-07 21:04 45.75432 5.65667 12914 ft 331 kts 28°
2026-05-07 21:05 45.77408 5.67210 12451 ft 319 kts 28°
2026-05-07 21:05 45.79355 5.68739 11997 ft 320 kts 28°
2026-05-07 21:05 45.81307 5.70279 11532 ft 321 kts 29°
2026-05-07 21:05 45.83233 5.71805 11090 ft 320 kts 29°
2026-05-07 21:06 45.85151 5.73323 10651 ft 309 kts 29°
2026-05-07 21:06 45.87001 5.74784 10221 ft 299 kts 28°
2026-05-07 21:06 45.88894 5.75887 9785 ft 289 kts 14°
2026-05-07 21:06 45.90837 5.76454 9303 ft 281 kts
2026-05-07 21:07 45.92727 5.76971 8859 ft 271 kts 10°
2026-05-07 21:07 45.94546 5.77478 8428 ft 262 kts 10°
2026-05-07 21:07 45.96325 5.77981 7994 ft 258 kts 10°
2026-05-07 21:07 45.98070 5.78474 7565 ft 255 kts 11°
2026-05-07 21:08 45.99238 5.78801 7286 ft 252 kts 11°
2026-05-07 21:08 46.00956 5.79282 7033 ft 252 kts 11°
2026-05-07 21:08 46.02583 5.80160 7005 ft 251 kts 34°
2026-05-07 21:08 46.03882 5.81828 7017 ft 251 kts 46°
2026-05-07 21:09 46.05101 5.83607 6685 ft 255 kts 46°
2026-05-07 21:09 46.06373 5.85456 6070 ft 263 kts 46°
2026-05-07 21:09 46.07638 5.87293 5665 ft 252 kts 46°
2026-05-07 21:09 46.08843 5.89043 5328 ft 240 kts 46°
2026-05-07 21:10 46.10011 5.90743 5004 ft 237 kts 46°
2026-05-07 21:10 46.11167 5.92425 4681 ft 235 kts 46°
2026-05-07 21:10 46.12300 5.94075 4378 ft 226 kts 46°
2026-05-07 21:10 46.13379 5.95647 4081 ft 214 kts 46°
2026-05-07 21:11 46.14376 5.97101 3815 ft 194 kts 46°
2026-05-07 21:11 46.15291 5.98437 3574 ft 180 kts 46°
2026-05-07 21:11 46.16931 6.00831 3108 ft 162 kts 45°
2026-05-07 21:12 46.17721 6.01985 2890 ft 162 kts 45°
2026-05-07 21:12 46.18484 6.03101 2682 ft 148 kts 45°
2026-05-07 21:12 46.19175 6.04112 2483 ft 136 kts 45°
2026-05-07 21:12 46.19841 6.05086 2293 ft 137 kts 45°
2026-05-07 21:13 46.20512 6.06068 2104 ft 137 kts 45°
2026-05-07 21:13 46.21183 6.07046 1948 ft 137 kts 45°
2026-05-07 21:13 46.21851 6.08023 1740 ft 136 kts 45°
2026-05-07 21:13 46.22510 6.08993 1551 ft 135 kts 45°
2026-05-07 21:14 46.23153 6.09933 1416 ft 128 kts 45°
2026-05-07 21:14 46.23672 6.10696 1381 ft 81 kts 46°
2026-05-07 21:14 46.23962 6.11124 1376 ft 47 kts 45°
2026-05-07 21:14 46.24173 6.11434 1373 ft 37 kts 46°